Hourly Data Report for December 03, 2020

SHEARWATER RCS
NOVA SCOTIA
Current Station Operator: ECCC - MSC

44°37'47.000" N
63°30'48.000" W
24.00 m
8205092
71264
AAW

Download Data

Hourly Data (December 2020)
Hourly Data Report for December 3, 2020
TIME
LST
Temp Definition
°C
Dew Point Definition
°C
Rel Hum Definition
%
Precip. Amount Definition
mm

Wind Dir Definition
10's deg

Wind Spd Definition
km/h
Visibility Definition
km
Stn Press Definition
kPa
Hmdx Definition


Wind Chill Definition


Weather Definition


00:00 8.6 7.9 95 0.0 16 16   100.84     LegendNANA
01:00 8.7 7.8 94 0.0 18 11   100.85     LegendNANA
02:00 8.2 6.7 90 0.0 22 12   100.86     LegendNANA
03:00 7.7 6.3 91 0.0 22 12   100.89     LegendNANA
04:00 7.6 6.0 90 0.0 23 11   100.90     LegendNANA
05:00 7.3 5.1 86 0.0 23 15   100.96     LegendNANA
06:00 6.6 4.4 85 0.0 22 14   101.01     LegendNANA
07:00 6.3 3.5 82 0.0 24 14   101.08     LegendNANA
08:00 6.1 3.2 82 0.0 24 13   101.17     LegendNANA
09:00 5.9 2.6 80 0.0 24 13   101.26     LegendNANA
10:00 6.2 1.7 73 0.0 25 15   101.33     LegendNANA
11:00 7.2 0.1 60 0.0 27 17   101.33     LegendNANA
12:00 5.9 -0.6 63 0.0 26 14   101.36     LegendNANA
13:00 6.0 0.3 67 0.0 27 11   101.37     LegendNANA
14:00 5.5 0.9 72 0.0 27 14   101.43     LegendNANA
15:00 5.9 -0.5 63 0.0 27 10   101.47     LegendNANA
16:00 5.6 -0.5 65 0.0 24 9   101.53     LegendNANA
17:00 4.2 -0.2 73 0.0 20 4   101.56     LegendNANA
18:00 2.4 -0.1 83 0.0 19 3   101.60     LegendNANA
19:00 1.6 -0.6 85 0.0 0 1   101.66     LegendNANA
20:00 2.5 0.1 84 0.0 28 4   101.71     LegendNANA
21:00 2.8 -0.4 79 0.0 26 4   101.69     LegendNANA
22:00 1.4 -0.3 88 0.0 27 4   101.70     LegendNANA
23:00 2.1 -0.7 81 0.0 24 5   101.73     LegendNANA

Notes on Data Quality.

Legend

  • E = Estimated
  • M = Missing
  • NA = Not Available*
  • [empty] = Indicates an unobserved value
Date modified: